Flag for Germany Weather past 2 weeks in Falkensee, Brandenburg, Germany

Now
75 °F

Passing clouds.


Feels Like: 77 °F
Forecast: 66 / 85 °F
Wind: 5 mph from East

Location: Berlin-Tegel

Current Time: Jul 26, 2014 at 12:14:49 PM

Latest Report: Jul 26, 2014 at 11:50 AM


Visibility: N/A

Pressure: 29.95 "Hg

Humidity: 69%

Dew point: 64 °F

Location of FalkenseeLocation

Historic Weather in Falkensee — Graph

°F

Falkensee temperature yesterday

Maximum temperature yesterday: 72 °F (at 10:20 AM)
Minimum temperature yesterday: 63 °F (at 12:20 AM)
Average temperature yesterday: 67 °F

Past Weeks' High & Low Weather Summary

 TemperatureHumidityPressure
High93 °F (Jul 20, 2:50 PM)100% (Jul 26, 5:20 AM)30.18 "Hg (Jul 26, 5:20 AM)
Low54 °F (Jul 13, 3:50 AM)20% (Jul 19, 3:50 PM)29.71 "Hg (Jul 13, 12:50 PM)
Average71 °F62%29.97 "Hg
* Reported Jul 11 11:20 AM — Jul 26 11:20 AM, Falkensee, Weather by CustomWeather, © 2014

Note: Actual official high and low records may vary slightly from our data, if they occured in-between our weather recording intervals... More about our weather records

Advertising

Falkensee weather history for previous 24 hours

 ConditionsComfort  
Time TempWeatherWind HumidityBarometerVisibility
11:20 AM
Jul 26
73 °FPassing clouds.5 mph74%29.95 "HgN/A
10:50 AM73 °FPassing clouds.2 mph74%29.95 "HgN/A
10:20 AM70 °FScattered clouds.3 mph83%29.95 "Hg5 mi
9:50 AM68 °FPartly sunny.3 mph88%29.95 "Hg5 mi
9:20 AM68 °FPartly sunny.7 mph88%29.95 "Hg4 mi
8:50 AM66 °FFog.8 mph94%29.95 "Hg2 mi
8:20 AM66 °FFog.6 mph94%29.95 "Hg2 mi
7:50 AM66 °FFog.5 mph94%29.95 "Hg2 mi
7:20 AM64 °FFog.3 mph100%29.95 "Hg1 mi
6:50 AM64 °FFog.5 mph94%29.95 "Hg1 mi
6:20 AM64 °FFog.6 mph94%29.95 "Hg1 mi
5:50 AM64 °FFog.6 mph94%29.95 "Hg2 mi
5:20 AM63 °FFog.2 mph100%29.95 "Hg3 mi
4:50 AM63 °FFog.3 mph94%29.95 "Hg3 mi
4:20 AM64 °FClear.5 mph94%29.95 "Hg5 mi
3:50 AM64 °FClear.2 mph94%29.95 "Hg5 mi
3:20 AM64 °FClear.3 mph94%29.92 "Hg5 mi
2:50 AM64 °FFog.5 mph94%29.92 "Hg4 mi
2:20 AM64 °FFog.2 mph94%29.95 "HgN/A
1:50 AM64 °FFog.2 mph94%29.95 "HgN/A
1:20 AM64 °FPassing clouds.5 mph94%29.95 "HgN/A
12:50 AM64 °FPassing clouds.5 mph94%29.95 "HgN/A
12:20 AM64 °FLight rain. Passing clouds.2 mph94%29.95 "HgN/A
11:50 PM
Jul 25
64 °FLight rain. Partly cloudy.3 mph94%29.95 "HgN/A
11:20 PM64 °FLight rain. Partly cloudy.3 mph88%29.95 "HgN/A
10:50 PM64 °FLight rain. Clear.5 mph88%29.95 "HgN/A
10:20 PM64 °FClear.7 mph88%29.95 "Hg10 mi
9:50 PM64 °FLight rain. Clear.5 mph88%29.95 "HgN/A
9:20 PM64 °FLight rain. Broken clouds.6 mph88%29.95 "HgN/A
8:50 PM64 °FSprinkles. Broken clouds.8 mph88%29.95 "HgN/A
8:20 PM64 °FSprinkles. Broken clouds.6 mph88%29.95 "HgN/A
7:50 PM66 °FSprinkles. Broken clouds.8 mph88%29.95 "HgN/A
7:20 PM66 °FThunderstorms. Broken clouds.9 mph88%29.95 "HgN/A
6:50 PM68 °FThunderstorms. Scattered clouds.12 mph83%29.95 "HgN/A
6:20 PM70 °FThundershowers. Scattered clouds.9 mph78%29.92 "HgN/A
5:50 PM70 °FThundershowers. Scattered clouds.7 mph83%29.92 "HgN/A
5:20 PM70 °FSprinkles. Broken clouds.15 mph83%29.92 "HgN/A
4:50 PM72 °FSprinkles. Broken clouds.14 mph73%29.92 "HgN/A
4:20 PM72 °FSprinkles. Broken clouds.12 mph73%29.92 "HgN/A
3:50 PM72 °FBroken clouds.14 mph73%29.95 "HgN/A
3:20 PM70 °FPartly sunny.13 mph83%29.95 "HgN/A
2:20 PM68 °FBroken clouds.9 mph83%29.95 "HgN/A
1:50 PM68 °FBroken clouds.12 mph83%29.95 "HgN/A
1:20 PM68 °FSprinkles. Broken clouds.9 mph78%29.95 "Hg4 mi
12:50 PM72 °FBroken clouds.9 mph69%29.95 "HgN/A
12:20 PM72 °FMore clouds than sun.8 mph69%29.95 "HgN/A
Weather by CustomWeather, © 2014

See weather overviewHow to use our weather pages